Location: Unspecified
(0.0000°N, 0.0000°E)
Time: 13:51:10
(UTC+01:00)

Resurs 01 Rocket - Visible Passes

Search period start: 16 January 2017 00:00
Search period end: 26 January 2017 00:00
Orbit: 635 x 644 km, 98.2° (Epoch: 15 January)

Date Brightness Start Highest point End Pass type
(mag) Time Alt. Az. Time Alt. Az. Time Alt. Az.
16 Jan 1.5 20:35:16 10° SSE 20:39:44 81° ENE 20:43:59 11° N visible
17 Jan 2.6 20:58:45 10° S 21:03:01 46° WSW 21:07:16 10° NNW visible
18 Jan 3.1 19:47:23 10° ESE 19:50:06 16° ENE 19:52:49 10° NE visible
18 Jan 4.0 21:22:51 10° SSW 21:26:18 22° WSW 21:29:44 10° NW visible
19 Jan 2.3 20:09:23 10° SE 20:13:23 33° ENE 20:17:22 10° NNE visible
19 Jan 4.8 21:48:48 10° WSW 21:49:34 10° WSW 21:50:21 10° W visible
20 Jan 1.5 20:32:14 10° SSE 20:36:41 72° ENE 20:41:06 10° N visible
21 Jan 2.4 20:55:38 10° S 20:59:58 52° WSW 21:04:17 10° NNW visible
22 Jan 3.2 19:44:40 10° ESE 19:47:03 14° ENE 19:49:25 10° NE visible
22 Jan 3.8 21:19:37 10° SSW 21:23:15 25° WSW 21:26:52 10° NW visible
23 Jan 2.4 20:06:28 10° SE 20:10:20 29° ENE 20:14:11 10° NNE visible
23 Jan 4.8 21:44:54 10° SW 21:46:31 12° WSW 21:48:08 10° W visible
24 Jan 1.5 20:29:13 10° SSE 20:33:37 64° ENE 20:38:01 10° N visible
25 Jan 2.1 20:52:32 10° S 20:56:55 59° WSW 21:01:17 10° NNW visible
